FW7144 Weather Reports


time (UTC)temp
F
wind
direction
speed
knots
gust
knots
rain 1hr
in
rain 24hr
in
rain mn
in
humidity
%
barometer
mb
20260504213805 85 41 0.0 7.8 0.00 0.00 0.00 24 1019.0
20260504213205 84 42 1.7 6.1 0.00 0.00 0.00 24 1019.1
20260504212605 85 23 0.0 9.6 0.00 0.00 0.00 26 1019.1
20260504212005 85 27 0.0 12.2 0.00 0.00 0.00 24 1019.2
20260504211405 84 19 5.2 8.7 0.00 0.00 0.00 27 1019.2
20260504210806 83 295 1.7 7.8 0.00 0.00 0.00 25 1019.3
20260504210205 83 277 0.0 11.3 0.00 0.00 0.00 28 1019.3
20260504205605 84 265 3.5 10.4 0.00 0.00 0.00 30 1019.5
20260504205005 83 279 3.5 6.1 0.00 0.00 0.00 29 1019.6
20260504204405 83 277 0.0 7.8 0.00 0.00 0.00 30 1019.7
20260504203817 83 311 1.7 8.7 0.00 0.00 0.00 31 1019.7
20260504203230 84 303 0.0 8.7 0.00 0.00 0.00 31 1019.9
20260504202605 82 303 3.5 11.3 0.00 0.00 0.00 34 1020.0
20260504202005 81 227 0.0 9.6 0.00 0.00 0.00 33 1020.0
20260504201405 82 277 4.3 9.6 0.00 0.00 0.00 32 1020.2
20260504200817 81 317 1.7 7.0 0.00 0.00 0.00 34 1020.3
20260504200205 80 310 0.0 12.2 0.00 0.00 0.00 35 1020.4
20260504195605 80 299 1.7 7.8 0.00 0.00 0.00 35 1020.5
20260504195005 79 221 1.7 12.2 0.00 0.00 0.00 35 1020.5
20260504194405 79 246 2.6 9.6 0.00 0.00 0.00 37 1020.5
20260504193805 79 2 1.7 7.8 0.00 0.00 0.00 37 1020.6
20260504193205 80 288 0.9 7.0 0.00 0.00 0.00 38 1020.7
20260504192605 80 282 0.0 9.6 0.00 0.00 0.00 38 1020.7
20260504192005 79 292 4.3 7.8 0.00 0.00 0.00 37 1020.8
20260504191405 78 207 0.0 9.6 0.00 0.00 0.00 39 1020.8
20260504190805 79 315 0.0 7.8 0.00 0.00 0.00 40 1020.9
20260504190205 78 297 1.7 10.4 0.00 0.00 0.00 38 1021.0
20260504185605 79 270 1.7 11.3 0.00 0.00 0.00 41 1021.1
20260504185005 77 280 3.5 7.0 0.00 0.00 0.00 39 1021.1
20260504184405 76 311 0.0 7.8 0.00 0.00 0.00 40 1021.3
20260504183805 75 284 1.7 9.6 0.00 0.00 0.00 40 1021.4
20260504183205 77 262 0.0 8.7 0.00 0.00 0.00 41 1021.5
20260504182605 76 303 1.7 7.8 0.00 0.00 0.00 43 1021.5
20260504182017 76 284 1.7 7.0 0.00 0.00 0.00 45 1021.6
20260504181405 75 316 1.7 3.5 0.00 0.00 0.00 45 1021.6
20260504180805 74 36 0.0 6.1 0.00 0.00 0.00 44 1021.8
20260504180217 73 310 3.5 7.8 0.00 0.00 0.00 46 1021.9
20260504175605 73 231 1.7 8.7 0.00 0.00 0.00 45 1021.8
20260504175005 73 289 1.7 7.8 0.00 0.00 0.00 48 1021.9
20260504174430 73 349 0.0 7.8 0.00 0.00 0.00 47 1021.9
20260504173205 73 290 2.6 7.8 0.00 0.00 0.00 51 1022.0
20260504172605 72 271 0.9 9.6 0.00 0.00 0.00 50 1022.1
20260504172006 71 298 1.7 9.6 0.00 0.00 0.00 52 1022.2
20260504171405 71 273 0.0 7.8 0.00 0.00 0.00 50 1022.3
20260504170806 70 313 2.6 9.6 0.00 0.00 0.00 52 1022.3
20260504170205 70 256 2.6 9.6 0.00 0.00 0.00 55 1022.4
20260504160205 62 192 0.0 6.1 0.00 0.00 0.00 70 1023.2
20260504150805 57 285 0.0 3.5 0.00 0.00 0.00 80 1023.6
20260504150229 56 252 0.0 5.2 0.00 0.00 0.00 81 1023.6
20260504140829 54 175 0.0 1.7 0.00 0.00 0.00 85 1023.3
20260504140205 54 152 0.0 2.6 0.00 0.00 0.00 85 1023.3
20260504130806 53 171 0.0 2.6 0.00 0.00 0.00 87 1023.2
20260504130230 52 354 0.0 0.0 0.00 0.00 0.00 88 1023.1
20260504120230 49 163 0.0 0.0 0.00 0.00 0.00 89 1022.8
20260504110205 46 9 0.0 0.0 0.00 0.00 0.00 89 1022.5
20260504100217 46 89 0.0 0.0 0.00 0.00 0.00 89 1022.9
20260504082005 45 75 0.0 0.0 0.00 0.00 0.00 86 1023.0
20260504081405 45 54 0.0 0.0 0.00 0.00 0.00 86 1023.2
20260504080805 45 54 0.0 0.0 0.00 0.00 0.00 85 1023.3
20260504080217 45 54 0.0 0.0 0.00 0.00 0.00 85 1023.3
20260504070205 46 96 0.0 1.7 0.00 0.00 0.00 84 1023.6
20260504060205 49 128 0.9 0.0 0.00 0.00 0.00 81 1023.2
20260504050205 51 44 0.0 0.0 0.00 0.00 0.00 80 1023.3
20260504045605 51 44 0.0 0.0 0.00 0.00 0.00 80 1023.2
20260504045005 52 44 0.0 0.0 0.00 0.00 0.00 79 1023.3
20260504044405 53 44 0.0 1.7 0.00 0.00 0.00 78 1023.3
20260504043842 53 74 0.0 1.7 0.00 0.00 0.00 76 1023.3
20260504043205 55 213 0.0 0.0 0.00 0.00 0.00 78 1023.3
20260504042605 55 238 0.0 2.6 0.00 0.00 0.00 77 1023.2
20260504042005 55 210 0.0 0.0 0.00 0.00 0.00 77 1023.2
20260504041405 56 253 0.0 0.0 0.00 0.00 0.00 74 1023.2
20260504040805 57 252 0.0 0.0 0.00 0.00 0.00 72 1023.1
20260504040205 58 252 0.0 2.6 0.00 0.00 0.00 70 1023.1
20260504035605 59 260 0.0 2.6 0.00 0.00 0.00 68 1023.2
20260504035042 60 261 0.9 2.6 0.00 0.00 0.00 67 1023.2
20260504034405 60 226 0.0 1.7 0.00 0.00 0.00 65 1023.2
20260504033805 61 263 0.0 4.3 0.00 0.00 0.00 65 1023.2
20260504033230 62 258 1.7 6.1 0.00 0.00 0.00 64 1022.9
20260504032605 62 249 3.5 7.8 0.00 0.00 0.00 63 1022.8
20260504032005 62 284 3.5 5.2 0.00 0.00 0.00 64 1022.8
20260504031405 61 266 1.7 6.1 0.00 0.00 0.00 63 1022.7
20260504030805 61 256 1.7 6.1 0.00 0.00 0.00 63 1022.7
20260504030205 60 253 1.7 3.5 0.00 0.00 0.00 62 1022.6
20260504025605 60 263 0.9 2.6 0.00 0.00 0.00 60 1022.5
20260504025005 61 250 1.7 4.3 0.00 0.00 0.00 61 1022.4
20260504024405 61 280 0.0 3.5 0.00 0.00 0.00 60 1022.4
20260504023805 61 194 0.0 5.2 0.00 0.00 0.00 58 1022.2
20260504023205 59 37 1.7 1.7 0.00 0.00 0.00 62 1022.2
20260504022605 60 54 0.0 5.2 0.00 0.00 0.00 57 1022.1
20260504022005 60 57 1.7 5.2 0.00 0.00 0.00 57 1022.0
20260504021405 58 78 0.0 2.6 0.00 0.00 0.00 61 1021.9
20260504020805 59 107 0.0 1.7 0.00 0.00 0.00 59 1021.7
20260504020205 60 93 0.0 1.7 0.00 0.00 0.00 56 1021.6
20260504015605 60 74 0.0 0.0 0.00 0.00 0.00 55 1021.5
20260504015005 61 281 0.0 0.0 0.00 0.00 0.00 57 1021.4
20260504014405 62 281 0.0 0.0 0.00 0.00 0.00 55 1021.2
20260504013805 63 281 0.0 0.0 0.00 0.00 0.00 55 1021.1
20260504013205 64 281 0.0 1.7 0.00 0.00 0.00 54 1021.1
20260504012605 65 278 0.0 1.7 0.00 0.00 0.00 53 1021.0
20260504012005 67 290 0.0 0.0 0.00 0.00 0.00 50 1020.9
20260504011429 68 286 0.0 1.7 0.00 0.00 0.00 47 1020.9
20260504010805 69 277 0.0 1.7 0.00 0.00 0.00 48 1020.8
20260504010205 70 280 0.0 2.6 0.00 0.00 0.00 47 1020.8
20260504005605 71 273 0.0 2.6 0.00 0.00 0.00 42 1020.9
20260504005005 72 266 0.0 6.1 0.00 0.00 0.00 42 1020.8
20260504004405 72 292 1.7 7.0 0.00 0.00 0.00 40 1020.8
20260504003829 72 288 0.0 6.1 0.00 0.00 0.00 40 1020.8
20260504003205 73 288 0.0 5.2 0.00 0.00 0.00 38 1020.8
20260504002605 73 311 0.0 6.1 0.00 0.00 0.00 38 1020.8
20260504002017 74 306 0.0 6.1 0.00 0.00 0.00 38 1020.7
20260504001405 73 270 2.6 8.7 0.00 0.00 0.00 37 1020.7
20260504000830 74 287 1.7 7.8 0.00 0.00 0.00 38 1020.7
20260504000205 74 293 2.6 7.0 0.00 0.00 0.00 37 1020.6
20260503235617 74 291 0.0 7.0 0.00 0.00 0.00 38 1020.7
20260503235017 74 278 1.7 3.5 0.00 0.00 0.00 38 1020.7
20260503234429 75 336 0.0 7.0 0.00 0.00 0.00 37 1020.8
20260503233805 74 354 0.0 7.8 0.00 0.00 0.00 39 1020.9
20260503233204 74 267 2.6 7.0 0.00 0.00 0.00 38 1020.9
20260503232605 75 259 0.0 10.4 0.00 0.00 0.00 39 1020.9
20260503232005 74 277 0.0 11.3 0.00 0.00 0.00 38 1020.9
20260503231430 74 326 1.7 5.2 0.00 0.00 0.00 40 1021.0
20260503230817 74 259 2.6 10.4 0.00 0.00 0.00 36 1021.1
20260503230242 74 286 2.6 7.8 0.00 0.00 0.00 38 1021.0
20260503225629 74 16 0.0 8.7 0.00 0.00 0.00 41 1021.0
20260503225004 73 290 1.7 11.3 0.00 0.00 0.00 40 1021.1
20260503224405 73 295 0.0 9.6 0.00 0.00 0.00 41 1021.2
20260503223805 73 243 2.6 9.6 0.00 0.00 0.00 41 1021.2
20260503223205 74 296 2.6 11.3 0.00 0.00 0.00 43 1021.3
20260503222605 75 275 1.7 7.8 0.00 0.00 0.00 44 1021.4
20260503222030 73 36 1.7 6.1 0.00 0.00 0.00 47 1021.4
20260503221405 74 296 0.0 7.8 0.00 0.00 0.00 44 1021.5
20260503220805 74 15 1.7 12.2 0.00 0.00 0.00 45 1021.7
20260503220205 73 259 0.0 9.6 0.00 0.00 0.00 46 1021.7
20260503215605 73 301 1.7 13.9 0.00 0.00 0.00 46 1021.8
20260503215017 73 273 3.5 9.6 0.00 0.00 0.00 44 1021.8
20260503214430 72 314 0.0 9.6 0.00 0.00 0.00 48 1021.9